Location: Baix
(44.7118°N, 4.7648°E)
Time: 01:53:32
(UTC+00:00)

Resurs 1-4 Rocket - Pass Details

Date: 07 August 2020
Orbit: 799 x 815 km, 98.6° (Epoch: 19 September)

Event Time Altitude Azimuth Distance (km) Brightness Sun altitude
Rises 03:11:35 0° 356° (N) 3,333 5.8 -13.3°
Reaches altitude 10° 03:15:21 10° 329° (NNW) 2,393 4.7 -12.8°
Maximum altitude 03:17:29 13° 305° (NW) 2,210 4.2 -12.5°
Drops below altitude 10° 03:19:37 10° 281° (W) 2,383 4.2 -12.2°
Enters shadow 03:20:29 - 272° (W) 2,541 4.2 -12.1°
